[[{"header":{"parameterUnit":"m.s-1","parameterCategory":1,"la1":30.2991,"la2":30.254,"lo1":-89.0895,"lo2":-89.0444,"dy":0.0017,"dx":0.0017,"nx":28,"ny":28,"refTime":"2025-11-11T03:00:00:Z","depth":0,"parameterNumber":2,"parameterNumberName":"U-component_of_WINDS"},"data":[0,0,0,0,0,0,0,0,0,0,0,0,0,0,0,0,0,0,0,0,0,0,0,0,0,0,0,0,0,0,0,0,0,0,0,0,0,0,0,0,0,0,0,0,0,0,0,0,0,0,0,0,0,0,0,0,0,0,0.9268,0.9269,0,0.9276,0.9276,0.9277,0.9268,0.9267,0.9267,0.9267,0.9273,0.9274,0.9274,0,0,0,0,0,0,0,0,0,0,0,0,0,0.9243,0.9244,0.9268,0.9269,0.9269,0.9276,0.9276,0.9277,0.9268,0.9267,0.9267,0.9267,0.9273,0.9274,0.9274,0,0,0,0,0,0,0,0,0,0,0,0,0,0.9253,0.9244,0.9268,0.9265,0.9265,0.9276,0.9276,0.9277,0.9268,0.9267,0.9267,0.9267,0.9273,0.9274,0.9275,0.9289,0,0,0.9277,0.9277,0,0,0,0,0,0,0,0,0.9252,0.9254,0.9266,0.9266,0.9265,0.9271,0.927,0.9281,0.9268,0.9267,0.9267,0.9266,0.9273,0.9274,0.9276,0.9289,0.9289,0.9277,0.9277,0.9278,0.9278,0,0,0,0,0,0,0,0.9252,0.9253,0.9272,0.9266,0.9266,0.9263,0.9263,0.9272,0.9272,0.9267,0.9266,0.9267,0.9273,0.9275,0.9276,0.9289,0.9277,0.9277,0.9278,0.9278,0.9312,0.9313,0,0,0,0,0,0,0.9252,0.9253,0.9271,0.9272,0.9258,0.9263,0.9264,0.9269,0.9272,0.9272,0.9268,0.9267,0.9274,0.9275,0.9276,0.9292,0.9278,0.9278,0.9279,0.9312,0.9313,0.9313,0,0,0,0,0,0,0.9251,0.9253,0.9271,0.9262,0.9264,0.9264,0.927,0.927,0.9273,0.9273,0.9273,0.9271,0.9274,0.9275,0.9285,0.9292,0.9279,0.9279,0.9311,0.9312,0.9313,0.9324,0,0,0,0,0,0,0.9251,0.9253,0.9259,0.9262,0.9265,0.9281,0.9271,0.927,0.9274,0.9273,0.9276,0.9276,0.9274,0.9284,0.9286,0.9293,0.928,0.9311,0.9312,0.9313,0.9323,0.9325,0.9326,0,0,0,0,0,0.925,0.9262,0.926,0.9262,0.9273,0.9281,0.9282,0.928,0.9275,0.928,0.928,0.9276,0.9291,0.9285,0.9287,0.9294,0.931,0.9311,0.9312,0.9322,0.9324,0.9326,0,0,0,0,0,0,0.926,0.9263,0.926,0.9274,0.9277,0.928,0.9287,0.9283,0.9288,0.9287,0.9283,0.9284,0.9294,0.9295,0.9289,0.9307,0.93,0.9301,0.9306,0.9308,0.931,0.9309,0.928,0,0,0,0,0,0.9264,0.9271,0.9273,0.9285,0.9287,0.9287,0.929,0.9288,0.9292,0.9293,0.9294,0.9296,0.9301,0.9305,0.931,0.9323,0.9322,0.9328,0.933,0.9332,0.9333,0.9338,0.934,0.9317,0.9317,0.9317,0,0,0.9272,0.9275,0.9279,0.9287,0.929,0.9296,0.9288,0.9296,0.93,0.9294,0.9303,0.9304,0.9306,0.9317,0.9322,0.9318,0.9339,0.9333,0.9334,0.9334,0.9339,0.9341,0.9343,0.9317,0.9317,0.9317,0,0,0.929,0.9294,0.9303,0.9305,0.9309,0.9308,0.9311,0.9313,0.9313,0.9323,0.9317,0.9322,0.9332,0.9334,0.9336,0.9353,0.9348,0.9354,0.9364,0.9368,0.937,0.9372,0.9377,0.9378,0.9356,0.9356,0.9356,0,0.93,0.931,0.9308,0.9316,0.9319,0.9314,0.9322,0.9325,0.933,0.9331,0.9327,0.9338,0.934,0.935,0.9354,0.9356,0.9358,0.9354,0.937,0.9372,0.9373,0.9378,0.938,0.9356,0.9356,0.9356,0.9356,0,0.9321,0.9328,0.9335,0.934,0.9344,0.9352,0.9351,0.9355,0.9352,0.9351,0.936,0.9362,0.9366,0.9368,0.9366,0.9378,0.9375,0.9371,0.9363,0.9376,0.938,0.9382,0.9357,0.9357,0.9357,0.9357,0,0,0.9346,0.9349,0.9351,0.9352,0.9355,0.936,0.9368,0.9372,0.9375,0.9379,0.9384,0.9391,0.9387,0.9389,0.9387,0.9391,0.9403,0.9386,0.9386,0.9388,0.9414,0.9417,0.9419,0.94,0.94,0.9401,0.9413,0,0.9363,0.9376,0.9374,0.9386,0.9392,0.9386,0.9392,0.9394,0.9394,0.9398,0.9397,0.9402,0.9396,0.9397,0.9401,0.94,0.9408,0.94,0.9404,0.9404,0.9402,0.9421,0.9424,0.9436,0.9415,0.9415,0.9416,0,0.9384,0.9388,0.9401,0.9401,0.9404,0.9409,0.9412,0.9417,0.9418,0.9417,0.9419,0.9416,0.9422,0.9415,0.9422,0.9417,0.9418,0.9418,0.9418,0.9418,0.941,0.942,0.944,0.9441,0.9418,0.9418,0.9418,0,0.9399,0.9407,0.9416,0.9417,0.9418,0.9422,0.9423,0.9424,0.9426,0.9429,0.943,0.9433,0.9435,0.9437,0.9434,0.9429,0.9442,0.9435,0.944,0.944,0.9442,0.9442,0.9462,0.9445,0.9445,0.9445,0.9445,0,0.9417,0.9425,0.9422,0.9427,0.9435,0.9432,0.944,0.944,0.944,0.9445,0.944,0.9444,0.944,0.9444,0.9441,0.9447,0.9448,0.9447,0.9446,0.9447,0.9447,0.9447,0.9445,0.9445,0.9445,0.9445,0.9445,0,0.9435,0.9434,0.9442,0.9442,0.9442,0.9448,0.9448,0.9452,0.9451,0.9456,0.9457,0.9455,0.9458,0.9456,0.9459,0.9458,0.9465,0.9464,0.9465,0.9464,0.9469,0.9468,0.9489,0.9491,0.9474,0.9474,0.9474,0,0.9446,0.9452,0.9452,0.9455,0.9456,0.946,0.9462,0.9459,0.9461,0.9463,0.9466,0.9469,0.9472,0.9477,0.9476,0.9478,0.9476,0.9483,0.9476,0.9476,0.9474,0.9473,0.9473,0.9484,0.9484,0.9484,0.9484,0,0.9466,0.9464,0.9468,0.9471,0.9473,0.9475,0.9477,0.9479,0.9476,0.9478,0.9482,0.9484,0.9487,0.9489,0.9491,0.9491,0.9487,0.9487,0.9488,0.9488,0.9488,0.9487,0.9467,0.9486,0.9486,0.9486,0.9486,0.9486,0.9479,0.9483,0.9484,0.9488,0.9489,0.949,0.9493,0.9492,0.9495,0.9498,0.9496,0.9499,0.9499,0.9501,0.9501,0.9504,0.9501,0.9503,0.9503,0.9503,0.9504,0.9488,0.9504,0.9504,0.9504,0.9504,0.9504,0,0.9497,0.9497,0.95,0.9503,0.9505,0.9501,0.9503,0.9505,0.9508,0.9509,0.9511,0.9514,0.9516,0.9515,0.9517,0.9519,0.9517,0.9519,0.9518,0.9518,0.9507,0.9505,0.9521,0.9521,0.9521,0.9521,0.9521,0.9521,0.9507,0.9513,0.9511,0.9518,0.9517,0.9521,0.9522,0.9523,0.9523,0.9527,0.9529,0.9528,0.9527,0.9529,0.953,0.953,0.953,0.9533,0.9532,0.9521,0.9519,0.9518,0.9516,0.9533,0.9533,0.9543,0.9543,0.9543]},{"header":{"parameterUnit":"m.s-1","parameterCategory":1,"la1":30.2991,"la2":30.254,"lo1":-89.0895,"lo2":-89.0444,"dy":0.0017,"dx":0.0017,"nx":28,"ny":28,"refTime":"2025-11-11T03:00:00:Z","depth":0,"parameterNumber":3,"parameterNumberName":"V-component_of_WINDS"},"data":[0,0,0,0,0,0,0,0,0,0,0,0,0,0,0,0,0,0,0,0,0,0,0,0,0,0,0,0,0,0,0,0,0,0,0,0,0,0,0,0,0,0,0,0,0,0,0,0,0,0,0,0,0,0,0,0,0,0,3.6903,3.6903,0,3.6898,3.6898,3.6898,3.6833,3.6831,3.683,3.6828,3.6823,3.6824,3.6826,0,0,0,0,0,0,0,0,0,0,0,0,0,3.6855,3.6856,3.6903,3.6903,3.6903,3.6898,3.6898,3.6898,3.6833,3.6831,3.6829,3.6827,3.6823,3.6824,3.6826,0,0,0,0,0,0,0,0,0,0,0,0,0,3.6866,3.6856,3.6903,3.687,3.6867,3.6899,3.6898,3.6898,3.6834,3.6831,3.6829,3.6826,3.6822,3.6824,3.6826,3.6889,0,0,3.6833,3.6834,0,0,0,0,0,0,0,0,3.6865,3.6867,3.6875,3.6872,3.6869,3.6864,3.6879,3.6895,3.6834,3.6846,3.6828,3.6825,3.6839,3.6839,3.6844,3.6889,3.6889,3.6833,3.6834,3.6835,3.6836,0,0,0,0,0,0,0,3.6864,3.6867,3.6901,3.6875,3.6872,3.6855,3.6854,3.6882,3.6857,3.6845,3.684,3.6841,3.6837,3.6842,3.6843,3.6888,3.6833,3.6835,3.6836,3.6837,3.6982,3.6984,0,0,0,0,0,0,3.6868,3.6867,3.6901,3.6901,3.6861,3.6858,3.6857,3.6868,3.6856,3.6852,3.6843,3.6838,3.684,3.6841,3.6843,3.6913,3.6835,3.6837,3.6838,3.6979,3.6982,3.6985,0,0,0,0,0,0,3.6868,3.6872,3.6902,3.6883,3.6885,3.6861,3.6875,3.6869,3.6874,3.6854,3.6849,3.6853,3.6838,3.684,3.6877,3.6912,3.6838,3.684,3.6976,3.698,3.6984,3.7056,0,0,0,0,0,0,3.6866,3.6872,3.6896,3.6884,3.6887,3.6937,3.6877,3.6871,3.6878,3.6872,3.6863,3.6859,3.6836,3.6875,3.6879,3.6914,3.6842,3.6973,3.6978,3.6983,3.705,3.7062,3.7071,0,0,0,0,0,3.6865,3.6917,3.6898,3.6902,3.6916,3.6939,3.6941,3.6913,3.6882,3.6905,3.6892,3.6859,3.6908,3.6879,3.6884,3.6919,3.6971,3.6977,3.6982,3.7045,3.7059,3.7071,0,0,0,0,0,0,3.6935,3.6915,3.6893,3.6943,3.6943,3.6928,3.6957,3.6929,3.6939,3.6932,3.6898,3.6896,3.6938,3.6933,3.6901,3.6978,3.6933,3.6941,3.698,3.6993,3.7003,3.7003,3.6843,0,0,0,0,0,3.6956,3.6976,3.6958,3.7004,3.7005,3.6981,3.699,3.6969,3.6968,3.6967,3.6957,3.6957,3.6972,3.6982,3.6995,3.705,3.7045,3.7076,3.7087,3.7096,3.7102,3.7127,3.714,3.7004,3.7004,3.7004,0,0,3.7,3.6992,3.7007,3.7018,3.7015,3.7036,3.6982,3.7007,3.7022,3.6971,3.7005,3.6998,3.6995,3.7041,3.706,3.7037,3.7139,3.7103,3.7111,3.7111,3.7135,3.7148,3.7159,3.7008,3.7008,3.7007,0,0,3.709,3.7087,3.7123,3.7122,3.7118,3.7102,3.7111,3.71,3.7092,3.7126,3.7088,3.7105,3.7133,3.7131,3.7135,3.7223,3.7192,3.7229,3.7283,3.7309,3.7319,3.7329,3.7358,3.7369,3.7235,3.7235,3.7235,0,3.7145,3.7175,3.7146,3.7173,3.7177,3.7133,3.7168,3.7168,3.717,3.7174,3.7149,3.718,3.7176,3.7219,3.724,3.7246,3.7253,3.7228,3.732,3.7329,3.7338,3.7365,3.7376,3.7239,3.7239,3.7238,3.7238,0,3.7241,3.7263,3.7293,3.7294,3.7303,3.7335,3.7309,3.7321,3.7299,3.7285,3.7319,3.7312,3.7321,3.7331,3.731,3.7371,3.7356,3.7327,3.728,3.7355,3.738,3.7391,3.7245,3.7244,3.7242,3.7241,0,0,3.7375,3.7359,3.737,3.7369,3.7361,3.7377,3.7406,3.7415,3.7425,3.7428,3.745,3.7473,3.7445,3.7449,3.7427,3.745,3.7518,3.7417,3.7416,3.7434,3.7581,3.7602,3.7615,3.7498,3.75,3.7502,3.7581,0,3.746,3.7507,3.7481,3.7532,3.755,3.7508,3.7532,3.753,3.7518,3.7531,3.7518,3.7534,3.7497,3.7498,3.7519,3.7505,3.7546,3.7499,3.7517,3.7518,3.7516,3.7628,3.765,3.7725,3.759,3.7592,3.7593,0,3.7565,3.757,3.7623,3.761,3.7617,3.764,3.7644,3.7658,3.7654,3.7644,3.7647,3.762,3.7646,3.7603,3.7638,3.7606,3.7612,3.7607,3.7609,3.7607,3.7558,3.7627,3.7748,3.7759,3.7609,3.7608,3.7607,0,3.7653,3.7675,3.7708,3.7709,3.7695,3.7712,3.7707,3.7701,3.7707,3.7712,3.7715,3.7723,3.7727,3.7734,3.7709,3.768,3.7746,3.7701,3.7737,3.7737,3.7751,3.775,3.7872,3.7759,3.7759,3.7759,3.7759,0,3.7749,3.7783,3.7747,3.7767,3.7803,3.7772,3.7808,3.7799,3.7793,3.781,3.7775,3.7792,3.7759,3.7773,3.7754,3.7784,3.7787,3.7778,3.7772,3.778,3.7781,3.7782,3.7775,3.7762,3.7761,3.7761,3.776,0,3.7854,3.7831,3.7864,3.7848,3.7845,3.7872,3.7858,3.7875,3.7861,3.7883,3.7886,3.7863,3.7877,3.7853,3.7865,3.7852,3.7893,3.7881,3.7894,3.789,3.7925,3.7921,3.805,3.8065,3.7945,3.7947,3.7948,0,3.7915,3.7939,3.7925,3.7934,3.7931,3.7946,3.7951,3.7922,3.7929,3.7926,3.7944,3.7955,3.7961,3.7985,3.7969,3.7977,3.7963,3.8008,3.7964,3.797,3.796,3.7958,3.7959,3.8016,3.8017,3.8019,3.802,0,3.8026,3.8013,3.8022,3.8028,3.8036,3.8039,3.8039,3.8048,3.8017,3.8027,3.804,3.8046,3.8057,3.8067,3.8071,3.8065,3.8037,3.8034,3.8042,3.8049,3.8054,3.8049,3.7916,3.803,3.8029,3.8028,3.8028,3.8027,3.8108,3.8127,3.8119,3.813,3.8127,3.8128,3.8143,3.813,3.814,3.8146,3.8129,3.8145,3.814,3.8142,3.8139,3.8152,3.8132,3.8144,3.8147,3.815,3.8154,3.8054,3.8153,3.8152,3.8152,3.8152,3.8151,0,3.8214,3.8207,3.8218,3.8219,3.8227,3.82,3.8199,3.8208,3.8223,3.822,3.8226,3.8241,3.825,3.8235,3.8242,3.8255,3.8242,3.8257,3.8255,3.8253,3.8173,3.8164,3.8267,3.8267,3.8267,3.8267,3.8267,3.8267,3.8271,3.8299,3.8286,3.8312,3.8305,3.832,3.8322,3.8322,3.8319,3.8336,3.8343,3.8333,3.8325,3.833,3.8338,3.8333,3.8336,3.8356,3.8346,3.8271,3.8259,3.8248,3.824,3.8357,3.8357,3.8425,3.8426,3.8426]}]]